Location: Albany
(35.0000°S, 118.0000°E)
Time: 00:41:00
(UTC-05:00)

JAS-1B - Visible Passes

Search period start: 12 February 2016 00:00
Search period end: 22 February 2016 00:00
Orbit: 911 x 1744 km, 99.0° (Epoch: 11 February)

Date Brightness Start Highest point End Pass type
(mag) Time Alt. Az. Time Alt. Az. Time Alt. Az.
12 Feb 8.2 06:29:32 10° NNE 06:38:41 80° ESE 06:48:44 10° S visible
12 Feb 10.0 08:23:16 10° NW 08:30:01 22° W 08:37:13 10° SW visible
13 Feb 8.3 06:48:32 10° N 06:57:44 81° WNW 07:07:49 10° SSW visible
13 Feb 10.2 08:44:19 10° WNW 08:49:29 16° W 08:54:54 10° SW visible
14 Feb 8.6 07:07:44 10° N 07:16:51 63° W 07:26:48 10° SSW visible
14 Feb 10.6 09:07:46 10° W 09:09:02 10° W 09:10:18 10° WSW visible
15 Feb 9.0 07:27:11 10° N 07:36:03 49° W 07:45:39 10° SSW visible
16 Feb 9.4 07:46:56 10° NNW 07:55:20 37° W 08:04:19 10° SSW visible
17 Feb 8.3 06:14:19 10° NNE 06:23:42 70° ESE 06:33:37 10° S visible
17 Feb 9.8 08:07:01 10° NW 08:14:40 28° W 08:22:46 10° SW visible
18 Feb 8.3 06:33:10 10° NNE 06:42:41 88° ESE 06:52:46 10° SSW visible
18 Feb 10.2 08:27:36 10° NW 08:34:04 20° W 08:40:50 10° SW visible
19 Feb 8.5 06:52:15 10° N 07:01:46 74° WNW 07:11:48 10° SSW visible
19 Feb 10.4 08:49:08 10° WNW 08:53:33 14° W 08:58:07 10° WSW visible
20 Feb 8.8 07:11:35 10° N 07:20:55 57° W 07:30:43 10° SSW visible
21 Feb 9.2 07:31:09 10° NNW 07:40:08 44° W 07:49:29 10° SSW visible
